Winnsboro, SC

2:30 PM EDT on April 22, 2018 (GMT -0400)
Fairfield County

Weather History for KFDW - April, 2014

Change the Weather History Date:

Sunday, April 20, 2014

  Actual Average Record
Temperature  
Mean Temperature 58 °F -  
Max Temperature 69 °F 75 °F 86 °F (2011)
Min Temperature 46 °F 50 °F 41 °F (2018)
Degree Days  
Heating Degree Days 8    
Growing Degree Days 8 (Base 50)    
Moisture  
Dew Point 42 °F    
Average Humidity 60    
Maximum Humidity 100    
Minimum Humidity 30    
Precipitation  
Precipitation 0.00 in - - ()
Sea Level Pressure  
Sea Level Pressure 30.17 in    
Wind  
Wind Speed 9 mph (NNE)    
Max Wind Speed 17 mph    
Max Gust Speed 32 mph    
Visibility 10 miles    
Events      
Averages and records for this station are not official NWS values.
T = Trace of Precipitation, MM = Missing Value Source: NWS Daily Summary

Daily Weather History Graph

Daily Weather History Graph

Search for Another Location

Airport or City:

Astronomy

Apr. 20, 2014 Rise Set
Actual Time 6:47 AM EDT 8:00 PM EDT
Civil Twilight 6:21 AM EDT 8:26 PM EDT
Nautical Twilight 5:49 AM EDT 8:57 PM EDT
Astronomical Twilight 5:17 AM EDT 9:29 PM EDT
Moon 12:33 AM EDT (4/20) 11:11 AM EDT (4/20)
Length of Visible Light 14h 05m
Length of Day
13h 13m
Waning Gibbous, 69% of the Moon is Illuminated
Apr 20
Waning Gibbous
Apr 22
Last Quarter
Apr 29
New
May 6
First Quarter
May 14
Full

Hourly Weather History & Observations

Time (EDT) Temp. Windchill Dew Point Humidity Pressure Visibility Wind Dir Wind Speed Gust Speed Precip Events Conditions
12:15 AM 48.2 °F - 46.4 °F 93% 30.17 in 10.0 mi NNE 10.4 mph 18.4 mph N/A   Mostly Cloudy
12:35 AM 48.2 °F - 46.4 °F 93% 30.16 in 10.0 mi NNE 12.7 mph 17.3 mph N/A   Overcast
12:55 AM 48.2 °F - 44.6 °F 87% 30.15 in 10.0 mi NNE 11.5 mph 17.3 mph N/A   Mostly Cloudy
1:15 AM 48.2 °F - 46.4 °F 93% 30.15 in 10.0 mi North 6.9 mph - N/A   Scattered Clouds
1:35 AM 46.4 °F 42.4 °F 46.4 °F 100% 30.15 in 10.0 mi NNE 8.1 mph - N/A   Mostly Cloudy
1:55 AM 48.2 °F - 46.4 °F 93% 30.15 in 10.0 mi NNE 10.4 mph - N/A   Scattered Clouds
2:15 AM 48.2 °F - 48.2 °F 100% 30.14 in 10.0 mi NNE 9.2 mph - N/A   Scattered Clouds
2:35 AM 50.0 °F - 46.4 °F 87% 30.13 in 10.0 mi NE 15.0 mph 25.3 mph N/A   Scattered Clouds
2:55 AM 51.8 °F - 44.6 °F 76% 30.13 in 10.0 mi NNE 13.8 mph 32.2 mph N/A   Mostly Cloudy
3:15 AM 51.8 °F - 44.6 °F 76% 30.13 in 10.0 mi NNE 11.5 mph 19.6 mph N/A   Mostly Cloudy
3:35 AM 50.0 °F - 46.4 °F 87% 30.13 in 10.0 mi NNE 8.1 mph 18.4 mph N/A   Scattered Clouds
3:55 AM 50.0 °F - 46.4 °F 87% 30.13 in 10.0 mi North 6.9 mph - N/A   Scattered Clouds
4:15 AM 50.0 °F - 46.4 °F 87% 30.13 in 10.0 mi North 5.8 mph - N/A   Mostly Cloudy
4:35 AM 50.0 °F - 46.4 °F 87% 30.14 in 10.0 mi North 4.6 mph - N/A   Mostly Cloudy
4:55 AM 50.0 °F - 46.4 °F 87% 30.14 in 10.0 mi North 5.8 mph - N/A   Overcast
5:15 AM 50.0 °F - 46.4 °F 87% 30.14 in 10.0 mi North 5.8 mph - N/A   Scattered Clouds
5:35 AM 50.0 °F - 46.4 °F 87% 30.14 in 10.0 mi North 4.6 mph - N/A   Clear
5:55 AM 50.0 °F - 46.4 °F 87% 30.15 in 10.0 mi North 5.8 mph - N/A   Mostly Cloudy
6:15 AM 50.0 °F - 46.4 °F 87% 30.15 in 10.0 mi North 4.6 mph - N/A   Overcast
6:35 AM 50.0 °F - 46.4 °F 87% 30.15 in 10.0 mi North 4.6 mph - N/A   Overcast
6:55 AM 50.0 °F - 46.4 °F 87% 30.15 in 10.0 mi North 5.8 mph - N/A   Overcast
7:15 AM 50.0 °F - 46.4 °F 87% 30.16 in 10.0 mi North 5.8 mph - N/A   Overcast
7:35 AM 50.0 °F - 46.4 °F 87% 30.17 in 10.0 mi North 8.1 mph - N/A   Overcast
7:55 AM 50.0 °F - 46.4 °F 87% 30.17 in 10.0 mi North 5.8 mph - N/A   Overcast
8:15 AM 50.0 °F - 46.4 °F 87% 30.18 in 10.0 mi North 8.1 mph - N/A   Overcast
8:35 AM 51.8 °F - 46.4 °F 82% 30.19 in 10.0 mi North 8.1 mph 16.1 mph N/A   Overcast
8:55 AM 51.8 °F - 44.6 °F 76% 30.20 in 10.0 mi North 8.1 mph - N/A   Mostly Cloudy
9:15 AM 51.8 °F - 44.6 °F 76% 30.20 in 10.0 mi North 9.2 mph 17.3 mph N/A   Scattered Clouds
9:35 AM 53.6 °F - 44.6 °F 72% 30.20 in 10.0 mi North 9.2 mph - N/A   Clear
9:55 AM 55.4 °F - 44.6 °F 67% 30.20 in 10.0 mi North 13.8 mph 21.9 mph N/A   Scattered Clouds
10:15 AM 57.2 °F - 42.8 °F 59% 30.20 in 10.0 mi North 10.4 mph 19.6 mph N/A   Clear
10:35 AM 59.0 °F - 41.0 °F 51% 30.21 in 10.0 mi NNE 16.1 mph 23.0 mph N/A   Scattered Clouds
10:55 AM 59.0 °F - 37.4 °F 45% 30.21 in 10.0 mi NNE 16.1 mph 26.5 mph N/A   Clear
11:15 AM 60.8 °F - 37.4 °F 42% 30.21 in 10.0 mi North 12.7 mph 21.9 mph N/A   Clear
11:35 AM 62.6 °F - 37.4 °F 39% 30.21 in 10.0 mi NNE 10.4 mph 25.3 mph N/A   Clear
11:55 AM 62.6 °F - 37.4 °F 39% 30.22 in 10.0 mi NE 17.3 mph 24.2 mph N/A   Clear
12:35 PM 64.4 °F - 37.4 °F 37% 30.22 in 10.0 mi North 10.4 mph 17.3 mph N/A   Clear
12:55 PM 64.4 °F - 37.4 °F 37% 30.21 in 10.0 mi North 12.7 mph 19.6 mph N/A   Clear
1:15 PM 64.4 °F - 35.6 °F 34% 30.21 in 10.0 mi North 10.4 mph 21.9 mph N/A   Scattered Clouds
1:35 PM 68.0 °F - 35.6 °F 30% 30.20 in 10.0 mi NNW 13.8 mph 20.7 mph N/A   Clear
1:55 PM 66.2 °F - 35.6 °F 32% 30.20 in 10.0 mi North 13.8 mph 18.4 mph N/A   Clear
2:15 PM 69.8 °F - 37.4 °F 31% 30.19 in 10.0 mi North 10.4 mph 19.6 mph N/A   Scattered Clouds
2:35 PM 68.0 °F - 37.4 °F 33% 30.18 in 10.0 mi North 15.0 mph 19.6 mph N/A   Scattered Clouds
2:55 PM 68.0 °F - 37.4 °F 33% 30.18 in 10.0 mi NE 12.7 mph 20.7 mph N/A   Scattered Clouds
3:15 PM 68.0 °F - 39.2 °F 35% 30.17 in 10.0 mi NE 12.7 mph - N/A   Scattered Clouds
3:35 PM 68.0 °F - 37.4 °F 33% 30.17 in 10.0 mi NNE 6.9 mph 16.1 mph N/A   Mostly Cloudy
3:55 PM 68.0 °F - 41.0 °F 37% 30.16 in 10.0 mi NNE 9.2 mph 16.1 mph N/A   Mostly Cloudy
4:15 PM 69.8 °F - 39.2 °F 33% 30.16 in 10.0 mi NE 11.5 mph 16.1 mph N/A   Scattered Clouds
4:35 PM 69.8 °F - 37.4 °F 31% 30.15 in 10.0 mi NE 11.5 mph 20.7 mph N/A   Scattered Clouds
4:55 PM 68.0 °F - 39.2 °F 35% 30.16 in 10.0 mi NNE 8.1 mph - N/A   Mostly Cloudy
5:15 PM 68.0 °F - 37.4 °F 33% 30.16 in 10.0 mi NNE 9.2 mph 17.3 mph N/A   Scattered Clouds
5:35 PM 68.0 °F - 37.4 °F 33% 30.16 in 10.0 mi NNE 10.4 mph 18.4 mph N/A   Mostly Cloudy
5:55 PM 66.2 °F - 35.6 °F 32% 30.16 in 10.0 mi NNE 5.8 mph - N/A   Overcast
6:15 PM 66.2 °F - 37.4 °F 35% 30.16 in 10.0 mi NNE 4.6 mph - N/A   Scattered Clouds
6:35 PM 66.2 °F - 39.2 °F 37% 30.16 in 10.0 mi NE 4.6 mph - N/A   Scattered Clouds
6:55 PM 66.2 °F - 39.2 °F 37% 30.16 in 10.0 mi NNE 3.5 mph - N/A   Mostly Cloudy
7:35 PM 64.4 °F - 42.8 °F 45% 30.16 in 10.0 mi NNE 3.5 mph - N/A   Scattered Clouds
7:55 PM 64.4 °F - 42.8 °F 45% 30.16 in 10.0 mi NNE 4.6 mph - N/A   Mostly Cloudy
8:15 PM 62.6 °F - 41.0 °F 45% 30.16 in 10.0 mi NNE 4.6 mph - N/A   Mostly Cloudy
8:35 PM 62.6 °F - 41.0 °F 45% 30.17 in 10.0 mi NNE 5.8 mph - N/A   Overcast
8:55 PM 62.6 °F - 41.0 °F 45% 30.18 in 10.0 mi NNE 4.6 mph - N/A   Overcast
9:15 PM 62.6 °F - 41.0 °F 45% 30.17 in 10.0 mi NNE 6.9 mph - N/A   Mostly Cloudy
9:35 PM 60.8 °F - 41.0 °F 48% 30.17 in 10.0 mi NNE 5.8 mph - N/A   Mostly Cloudy
9:55 PM 60.8 °F - 39.2 °F 45% 30.18 in 10.0 mi NNE 5.8 mph - N/A   Mostly Cloudy
10:15 PM 60.8 °F - 39.2 °F 45% 30.17 in 10.0 mi NNE 6.9 mph - N/A   Mostly Cloudy
10:35 PM 59.0 °F - 39.2 °F 48% 30.18 in 10.0 mi NNE 5.8 mph - N/A   Scattered Clouds
10:55 PM 59.0 °F - 39.2 °F 48% 30.18 in 10.0 mi NNE 5.8 mph - N/A   Clear
11:15 PM 59.0 °F - 39.2 °F 48% 30.18 in 10.0 mi NNE 5.8 mph - N/A   Clear
11:35 PM 59.0 °F - 39.2 °F 48% 30.17 in 10.0 mi NNE 5.8 mph - N/A   Clear
11:55 PM 57.2 °F - 39.2 °F 51% 30.17 in 10.0 mi NNE 6.9 mph - N/A   Clear